Hovedside
METAR-TAF:

METAR-TAF

Lufthavner :

Pärnu, Estland

Pärnu lufthavn

breddegrad: 58-25-09N, lengdegrad: 024-28-22E, høyde over havet: 14 m

Gjeldene værobservasjon

Denne rapporten ble laget for 43 minutter siden, klokken 13:50 UTC
Vind 2 kt fra skiftende retning
Temperatur 0°C
Luftfuktighet 100%
Trykk 1014 hPa
Sikt 10 km eller mer
Brutte skyer i en høyde av 1200 ft

METAR: EEPU 221350Z VRB02KT 9999 BKN012 M00/M00 Q1014

Tid: 16:33 (14:33 UTC)


TAF: fraværende

Værobservasjoner og værvarsel for over 4000 flyplasser (METAR- og TAF-rapporter).

Tilgjengelige stasjoner er representert av de røde og gule prikkene på kartet.

Hold musepekeren over prikken for å se navnet på stasjonen.

Klikk så for å se værobservasjoner og -varsler.

For å forandre kartet kan du klikke på den grønne knappen med svart kryss for å zoome inn, på den grønne knappen med strek for å zoome ut, eller på de grønne pilene for å se tilstøtende kart.


METAR-TAF: